{"data":{"norad_id":63276,"epoch":"2026-09-20T14:56:25.391904Z","epoch_age_seconds":148204,"freshness":"FRESH","line1":"1 63276U 25053M   26263.62251611  .00141245  00000+0  10849-2 0  9992","line2":"2 63276  42.9995  17.5730 0004066 279.7613  80.2795 15.70849883 88312","mean_motion":15.70849883,"eccentricity":0.0004066,"inclination_deg":42.9995,"raan_deg":17.573,"arg_perigee_deg":279.7613,"mean_anomaly_deg":80.2795,"bstar":0.0010849,"rev_number":8831,"period_min":91.670121733714,"perigee_km":353.72852434215,"apogee_km":359.2051041639,"semimajor_km":6734.603814253,"source":"CELESTRAK","updated_at":"2026-09-21T09:00:34.964472Z"}}